| time (UTC) | temp F | wind direction | speed knots | gust knots | rain 1hr in | rain 24hr in | rain mn in | humidity % | barometer mb |
| 20260509173824 | 62 | 171 | 5.2 | 9.6 | 0.00 | 0.00 | 0.00 | 65 | 1009.0 |
| 20260509173317 | 61 | 192 | 1.7 | 5.2 | 0.00 | 0.00 | 0.00 | 69 | 1009.1 |
| 20260509172828 | 61 | 290 | 0.9 | 6.1 | 0.00 | 0.00 | 0.00 | 69 | 1009.2 |
| 20260509172321 | 61 | 175 | 2.6 | 6.1 | 0.00 | 0.00 | 0.00 | 71 | 1009.4 |
| 20260509171817 | 60 | 54 | 0.9 | 5.2 | 0.00 | 0.00 | 0.00 | 71 | 1009.7 |
| 20260509171329 | 60 | 158 | 1.7 | 4.3 | 0.00 | 0.00 | 0.00 | 71 | 1009.8 |
| 20260509170822 | 60 | 37 | 0.9 | 4.3 | 0.00 | 0.00 | 0.00 | 72 | 1009.9 |
| 20260509170333 | 59 | 65 | 0.9 | 3.5 | 0.00 | 0.00 | 0.00 | 72 | 1010.0 |
| 20260509165822 | 59 | 178 | 1.7 | 4.3 | 0.00 | 0.00 | 0.00 | 71 | 1009.9 |
| 20260509165354 | 59 | 53 | 0.9 | 4.3 | 0.00 | 0.00 | 0.00 | 70 | 1010.0 |
| 20260509164844 | 59 | 44 | 1.7 | 4.3 | 0.00 | 0.00 | 0.00 | 70 | 1010.0 |
| 20260509164315 | 59 | 17 | 1.7 | 4.3 | 0.00 | 0.00 | 0.00 | 71 | 1010.1 |
| 20260509163827 | 59 | 33 | 0.9 | 4.3 | 0.00 | 0.00 | 0.00 | 70 | 1010.2 |
| 20260509163323 | 59 | 15 | 1.7 | 4.3 | 0.00 | 0.00 | 0.00 | 72 | 1010.3 |
| 20260509162815 | 59 | 296 | 2.6 | 6.1 | 0.00 | 0.00 | 0.00 | 69 | 1010.3 |
| 20260509162327 | 59 | 310 | 2.6 | 6.1 | 0.00 | 0.00 | 0.00 | 71 | 1010.3 |
| 20260509161818 | 58 | 288 | 2.6 | 7.0 | 0.00 | 0.00 | 0.00 | 71 | 1010.2 |
| 20260509161329 | 58 | 303 | 3.5 | 7.0 | 0.00 | 0.00 | 0.00 | 71 | 1010.1 |
| 20260509160821 | 58 | 23 | 2.6 | 6.1 | 0.00 | 0.00 | 0.00 | 72 | 1010.1 |
| 20260509160353 | 58 | 300 | 2.6 | 7.0 | 0.00 | 0.00 | 0.00 | 70 | 1010.1 |
| 20260509155842 | 58 | 313 | 3.5 | 7.0 | 0.00 | 0.00 | 0.00 | 69 | 1010.0 |
| 20260509155313 | 59 | 49 | 3.5 | 7.0 | 0.00 | 0.00 | 0.00 | 70 | 1010.0 |
| 20260509154825 | 58 | 19 | 3.5 | 7.0 | 0.00 | 0.00 | 0.00 | 72 | 1010.0 |
| 20260509154320 | 58 | 360 | 3.5 | 7.0 | 0.00 | 0.00 | 0.00 | 72 | 1010.1 |
| 20260509153833 | 58 | 297 | 3.5 | 5.2 | 0.00 | 0.00 | 0.00 | 72 | 1010.1 |
| 20260509153324 | 58 | 304 | 3.5 | 5.2 | 0.00 | 0.00 | 0.00 | 71 | 1010.2 |
| 20260509152816 | 59 | 288 | 2.6 | 7.0 | 0.00 | 0.00 | 0.00 | 69 | 1010.2 |
| 20260509152328 | 59 | 311 | 3.5 | 7.0 | 0.00 | 0.00 | 0.00 | 70 | 1010.1 |
| 20260509151820 | 59 | 360 | 2.6 | 7.0 | 0.00 | 0.00 | 0.00 | 70 | 1010.2 |
| 20260509151332 | 59 | 305 | 1.7 | 7.0 | 0.00 | 0.00 | 0.00 | 71 | 1010.1 |
| 20260509150845 | 59 | 303 | 2.6 | 4.3 | 0.00 | 0.00 | 0.00 | 70 | 1010.2 |
| 20260509150320 | 58 | 313 | 0.0 | 5.2 | 0.00 | 0.00 | 0.00 | 71 | 1010.2 |
| 20260509145852 | 58 | 13 | 1.7 | 7.0 | 0.00 | 0.00 | 0.00 | 72 | 1010.2 |
| 20260509145323 | 58 | 307 | 2.6 | 7.0 | 0.00 | 0.00 | 0.00 | 74 | 1010.1 |
| 20260509144815 | 58 | 313 | 1.7 | 6.1 | 0.00 | 0.00 | 0.00 | 72 | 1010.1 |
| 20260509144327 | 58 | 297 | 2.6 | 7.8 | 0.00 | 0.00 | 0.00 | 72 | 1010.1 |
| 20260509143819 | 58 | 304 | 3.5 | 7.8 | 0.00 | 0.00 | 0.00 | 74 | 1010.1 |
| 20260509143351 | 57 | 45 | 4.3 | 7.0 | 0.00 | 0.00 | 0.00 | 74 | 1010.1 |
| 20260509142822 | 57 | 313 | 3.5 | 5.2 | 0.00 | 0.00 | 0.00 | 73 | 1010.3 |
| 20260509142314 | 57 | 19 | 3.5 | 5.2 | 0.00 | 0.00 | 0.00 | 73 | 1010.3 |
| 20260509141827 | 57 | 9 | 2.6 | 5.2 | 0.00 | 0.00 | 0.00 | 74 | 1010.4 |
| 20260509141322 | 57 | 294 | 2.6 | 4.3 | 0.00 | 0.00 | 0.00 | 72 | 1010.4 |
| 20260509140814 | 56 | 24 | 0.0 | 2.6 | 0.00 | 0.00 | 0.00 | 74 | 1010.4 |
| 20260509140326 | 56 | 24 | 0.9 | 1.7 | 0.00 | 0.00 | 0.00 | 75 | 1010.5 |
| 20260509135817 | 55 | 284 | 0.0 | 1.7 | 0.00 | 0.00 | 0.00 | 74 | 1010.5 |
| 20260509135329 | 55 | 284 | 0.0 | 1.7 | 0.00 | 0.00 | 0.00 | 74 | 1010.4 |
| 20260509134820 | 55 | 284 | 0.9 | 1.7 | 0.00 | 0.00 | 0.00 | 73 | 1010.5 |
| 20260509134352 | 55 | 169 | 0.0 | 0.0 | 0.00 | 0.00 | 0.00 | 73 | 1010.4 |
| 20260509133844 | 55 | 169 | 0.0 | 0.9 | 0.00 | 0.00 | 0.00 | 73 | 1010.3 |
| 20260509133316 | 55 | 169 | 0.0 | 1.7 | 0.00 | 0.00 | 0.00 | 74 | 1010.4 |
| 20260509132831 | 55 | 171 | 0.0 | 4.3 | 0.00 | 0.00 | 0.00 | 74 | 1010.4 |
| 20260509132323 | 54 | 164 | 2.6 | 4.3 | 0.00 | 0.00 | 0.00 | 75 | 1010.2 |
| 20260509131815 | 54 | 49 | 0.0 | 3.5 | 0.00 | 0.00 | 0.00 | 75 | 1010.1 |
| 20260509131327 | 54 | 59 | 0.9 | 7.0 | 0.00 | 0.00 | 0.00 | 74 | 1010.1 |
| 20260509130819 | 54 | 311 | 2.6 | 7.8 | 0.00 | 0.00 | 0.00 | 75 | 1009.9 |
| 20260509130351 | 54 | 290 | 5.2 | 7.8 | 0.00 | 0.00 | 0.00 | 72 | 1009.9 |
| 20260509125819 | 54 | 311 | 3.5 | 6.1 | 0.00 | 0.00 | 0.00 | 71 | 1010.1 |
| 20260509125332 | 55 | 9 | 3.5 | 4.3 | 0.00 | 0.00 | 0.00 | 69 | 1010.3 |
| 20260509124824 | 55 | 28 | 1.7 | 2.6 | 0.00 | 0.00 | 0.00 | 69 | 1010.4 |
| 20260509124340 | 55 | 72 | 0.0 | 2.6 | 0.00 | 0.00 | 0.00 | 67 | 1010.5 |
| 20260509123851 | 55 | 9 | 0.9 | 2.6 | 0.00 | 0.00 | 0.00 | 66 | 1010.5 |
| 20260509123322 | 55 | 293 | 0.9 | 4.3 | 0.00 | 0.00 | 0.00 | 65 | 1010.5 |
| 20260509122854 | 55 | 291 | 2.6 | 4.3 | 0.00 | 0.00 | 0.00 | 63 | 1010.4 |
| 20260509122323 | 56 | 286 | 2.6 | 4.3 | 0.00 | 0.00 | 0.00 | 62 | 1010.4 |
| 20260509121815 | 56 | 298 | 2.6 | 6.1 | 0.00 | 0.00 | 0.00 | 61 | 1010.4 |
| 20260509121327 | 56 | 296 | 2.6 | 6.1 | 0.00 | 0.00 | 0.00 | 62 | 1010.3 |
| 20260509120839 | 56 | 311 | 2.6 | 4.3 | 0.00 | 0.00 | 0.00 | 63 | 1010.4 |
| 20260509120330 | 55 | 302 | 2.6 | 4.3 | 0.00 | 0.00 | 0.00 | 62 | 1010.4 |
| 20260509115819 | 55 | 311 | 2.6 | 4.3 | 0.00 | 0.00 | 0.00 | 63 | 1010.2 |
| 20260509115315 | 55 | 295 | 0.0 | 0.0 | 0.00 | 0.00 | 0.00 | 63 | 1010.4 |
| 20260509114827 | 55 | 46 | 0.0 | 0.9 | 0.00 | 0.00 | 0.00 | 62 | 1010.4 |
| 20260509114319 | 55 | 46 | 0.0 | 1.7 | 0.00 | 0.00 | 0.00 | 62 | 1010.3 |
| 20260509113831 | 55 | 46 | 0.0 | 2.6 | 0.00 | 0.00 | 0.00 | 61 | 1010.4 |
| 20260509113323 | 55 | 46 | 0.0 | 3.5 | 0.00 | 0.00 | 0.00 | 61 | 1010.2 |
| 20260509112814 | 55 | 46 | 0.9 | 2.6 | 0.00 | 0.00 | 0.00 | 60 | 1010.2 |
| 20260509112326 | 55 | 46 | 1.7 | 2.6 | 0.00 | 0.00 | 0.00 | 60 | 1010.2 |
| 20260509111837 | 55 | 304 | 0.9 | 1.7 | 0.00 | 0.00 | 0.00 | 63 | 1010.2 |
| 20260509111348 | 55 | 173 | 0.0 | 0.0 | 0.00 | 0.00 | 0.00 | 62 | 1010.2 |
| 20260509110819 | 55 | 173 | 0.0 | 0.0 | 0.00 | 0.00 | 0.00 | 62 | 1010.2 |
| 20260509110315 | 55 | 173 | 0.0 | 0.9 | 0.00 | 0.00 | 0.00 | 63 | 1010.1 |
| 20260509105825 | 55 | 173 | 0.0 | 1.7 | 0.00 | 0.00 | 0.00 | 61 | 1010.1 |
| 20260509105338 | 55 | 173 | 0.9 | 2.6 | 0.00 | 0.00 | 0.00 | 61 | 1010.0 |
| 20260509104829 | 55 | 306 | 0.9 | 4.3 | 0.00 | 0.00 | 0.00 | 61 | 1010.0 |
| 20260509104320 | 55 | 307 | 3.5 | 4.3 | 0.00 | 0.00 | 0.00 | 61 | 1009.9 |
| 20260509103832 | 55 | 300 | 2.6 | 4.3 | 0.00 | 0.00 | 0.00 | 61 | 1009.9 |
| 20260509103324 | 55 | 293 | 1.7 | 3.5 | 0.00 | 0.00 | 0.00 | 61 | 1009.8 |
| 20260509102836 | 54 | 300 | 1.7 | 3.5 | 0.00 | 0.00 | 0.00 | 61 | 1009.8 |
| 20260509102327 | 54 | 310 | 2.6 | 3.5 | 0.00 | 0.00 | 0.00 | 62 | 1009.7 |
| 20260509101822 | 54 | 302 | 2.6 | 3.5 | 0.00 | 0.00 | 0.00 | 62 | 1009.8 |
| 20260509101314 | 55 | 304 | 2.6 | 5.2 | 0.00 | 0.00 | 0.00 | 62 | 1009.8 |
| 20260509100827 | 56 | 309 | 3.5 | 6.1 | 0.00 | 0.00 | 0.00 | 58 | 1009.7 |
| 20260509100318 | 58 | 311 | 2.6 | 4.3 | 0.00 | 0.00 | 0.00 | 54 | 1009.5 |
| 20260509095828 | 58 | 130 | 0.0 | 2.6 | 0.00 | 0.00 | 0.00 | 51 | 1009.5 |
| 20260509095320 | 58 | 177 | 0.0 | 3.5 | 0.00 | 0.00 | 0.00 | 51 | 1009.3 |
| 20260509094832 | 58 | 164 | 1.7 | 4.3 | 0.00 | 0.00 | 0.00 | 51 | 1009.3 |
| 20260509094324 | 58 | 175 | 1.7 | 6.1 | 0.00 | 0.00 | 0.00 | 51 | 1009.3 |
| 20260509093819 | 58 | 174 | 1.7 | 6.1 | 0.00 | 0.00 | 0.00 | 51 | 1009.4 |
| 20260509093331 | 58 | 169 | 1.7 | 6.1 | 0.00 | 0.00 | 0.00 | 51 | 1009.3 |
| 20260509092843 | 58 | 152 | 2.6 | 6.1 | 0.00 | 0.00 | 0.00 | 51 | 1009.4 |
| 20260509092314 | 58 | 171 | 2.6 | 4.3 | 0.00 | 0.00 | 0.00 | 50 | 1009.4 |
| 20260509091847 | 58 | 167 | 3.5 | 6.1 | 0.00 | 0.00 | 0.00 | 50 | 1009.4 |
| 20260509091317 | 58 | 165 | 4.3 | 7.0 | 0.00 | 0.00 | 0.00 | 50 | 1009.4 |
| 20260509090850 | 58 | 173 | 4.3 | 7.0 | 0.00 | 0.00 | 0.00 | 51 | 1009.4 |
| 20260509090320 | 58 | 169 | 4.3 | 7.0 | 0.00 | 0.00 | 0.00 | 50 | 1009.4 |
| 20260509085830 | 58 | 166 | 5.2 | 7.8 | 0.00 | 0.00 | 0.00 | 50 | 1009.4 |
| 20260509085321 | 58 | 180 | 4.3 | 7.8 | 0.00 | 0.00 | 0.00 | 50 | 1009.4 |
| 20260509084817 | 58 | 163 | 2.6 | 6.1 | 0.00 | 0.00 | 0.00 | 51 | 1009.5 |
| 20260509084329 | 58 | 190 | 3.5 | 7.8 | 0.00 | 0.00 | 0.00 | 51 | 1009.4 |
| 20260509083821 | 58 | 172 | 3.5 | 6.1 | 0.00 | 0.00 | 0.00 | 52 | 1009.4 |
| 20260509083332 | 57 | 175 | 3.5 | 6.1 | 0.00 | 0.00 | 0.00 | 52 | 1009.5 |
| 20260509082825 | 58 | 163 | 2.6 | 5.2 | 0.00 | 0.00 | 0.00 | 53 | 1009.6 |
| 20260509082316 | 58 | 156 | 2.6 | 5.2 | 0.00 | 0.00 | 0.00 | 53 | 1009.5 |
| 20260509081828 | 58 | 172 | 3.5 | 5.2 | 0.00 | 0.00 | 0.00 | 53 | 1009.6 |
| 20260509081320 | 58 | 169 | 3.5 | 6.1 | 0.00 | 0.00 | 0.00 | 52 | 1009.7 |
| 20260509080815 | 58 | 172 | 4.3 | 7.0 | 0.00 | 0.00 | 0.00 | 52 | 1009.7 |
| 20260509080328 | 58 | 175 | 4.3 | 6.1 | 0.00 | 0.00 | 0.00 | 51 | 1009.7 |
| 20260509075817 | 59 | 165 | 3.5 | 6.1 | 0.00 | 0.00 | 0.00 | 51 | 1009.8 |
| 20260509075329 | 59 | 178 | 3.5 | 6.1 | 0.00 | 0.00 | 0.00 | 50 | 1009.8 |
| 20260509074821 | 59 | 185 | 3.5 | 7.0 | 0.00 | 0.00 | 0.00 | 50 | 1009.8 |
| 20260509074330 | 59 | 159 | 4.3 | 7.8 | 0.00 | 0.00 | 0.00 | 50 | 1009.8 |
| 20260509073822 | 59 | 180 | 4.3 | 6.1 | 0.00 | 0.00 | 0.00 | 50 | 1009.9 |
| 20260509073313 | 59 | 182 | 3.5 | 9.6 | 0.00 | 0.00 | 0.00 | 50 | 1009.9 |
| 20260509072826 | 59 | 176 | 4.3 | 9.6 | 0.00 | 0.00 | 0.00 | 50 | 1009.9 |
| 20260509072321 | 59 | 165 | 4.3 | 7.8 | 0.00 | 0.00 | 0.00 | 50 | 1009.8 |
| 20260509071854 | 59 | 172 | 4.3 | 6.1 | 0.00 | 0.00 | 0.00 | 50 | 1009.8 |
| 20260509071344 | 59 | 179 | 3.5 | 7.0 | 0.00 | 0.00 | 0.00 | 51 | 1009.8 |
| 20260509070815 | 59 | 183 | 4.3 | 7.0 | 0.00 | 0.00 | 0.00 | 51 | 1009.9 |
| 20260509070326 | 58 | 180 | 3.5 | 7.0 | 0.00 | 0.00 | 0.00 | 51 | 1009.9 |
| 20260509065816 | 58 | 184 | 3.5 | 7.0 | 0.00 | 0.00 | 0.00 | 52 | 1009.9 |
| 20260509065328 | 58 | 178 | 3.5 | 7.0 | 0.00 | 0.00 | 0.00 | 52 | 1010.0 |
| 20260509064819 | 58 | 175 | 4.3 | 6.1 | 0.00 | 0.00 | 0.00 | 52 | 1010.1 |
| 20260509064332 | 58 | 166 | 3.5 | 6.1 | 0.00 | 0.00 | 0.00 | 52 | 1010.0 |
| 20260509063828 | 58 | 171 | 3.5 | 7.0 | 0.00 | 0.00 | 0.00 | 53 | 1010.1 |
| 20260509063320 | 58 | 161 | 4.3 | 6.1 | 0.00 | 0.00 | 0.00 | 53 | 1010.1 |
| 20260509062832 | 57 | 165 | 4.3 | 7.0 | 0.00 | 0.00 | 0.00 | 54 | 1010.2 |
| 20260509062322 | 57 | 167 | 2.6 | 6.1 | 0.00 | 0.00 | 0.00 | 55 | 1010.3 |
| 20260509061813 | 57 | 175 | 1.7 | 6.1 | 0.00 | 0.00 | 0.00 | 54 | 1010.3 |
| 20260509061325 | 58 | 166 | 1.7 | 5.2 | 0.00 | 0.00 | 0.00 | 53 | 1010.2 |
| 20260509060836 | 58 | 176 | 2.6 | 5.2 | 0.00 | 0.00 | 0.00 | 53 | 1010.4 |
| 20260509060327 | 58 | 169 | 1.7 | 4.3 | 0.00 | 0.00 | 0.00 | 52 | 1010.5 |
| 20260509055817 | 58 | 162 | 1.7 | 4.3 | 0.00 | 0.00 | 0.00 | 52 | 1010.5 |
| 20260509055333 | 58 | 169 | 1.7 | 4.3 | 0.00 | 0.00 | 0.00 | 52 | 1010.5 |
| 20260509054825 | 58 | 197 | 1.7 | 4.3 | 0.00 | 0.00 | 0.00 | 52 | 1010.6 |
| 20260509054316 | 58 | 178 | 2.6 | 5.2 | 0.00 | 0.00 | 0.00 | 52 | 1010.6 |
| 20260509053829 | 58 | 167 | 3.5 | 7.0 | 0.00 | 0.00 | 0.00 | 53 | 1010.6 |
| 20260509053321 | 58 | 164 | 2.6 | 6.1 | 0.00 | 0.00 | 0.00 | 53 | 1010.5 |
| 20260509052832 | 57 | 172 | 3.5 | 6.1 | 0.00 | 0.00 | 0.00 | 53 | 1010.6 |
| 20260509052323 | 58 | 155 | 1.7 | 5.2 | 0.00 | 0.00 | 0.00 | 53 | 1010.6 |
| 20260509051815 | 58 | 119 | 0.9 | 4.3 | 0.00 | 0.00 | 0.00 | 53 | 1010.6 |
| 20260509051330 | 58 | 130 | 1.7 | 7.0 | 0.00 | 0.00 | 0.00 | 53 | 1010.6 |
| 20260509050823 | 58 | 142 | 2.6 | 7.0 | 0.00 | 0.00 | 0.00 | 52 | 1010.6 |
| 20260509050334 | 58 | 182 | 1.7 | 4.3 | 0.00 | 0.00 | 0.00 | 52 | 1010.6 |
| 20260509045823 | 59 | 173 | 1.7 | 5.2 | 0.00 | 0.00 | 0.00 | 52 | 1010.6 |
| 20260509045335 | 59 | 175 | 1.7 | 3.5 | 0.00 | 0.00 | 0.00 | 52 | 1010.4 |
| 20260509044826 | 59 | 155 | 1.7 | 3.5 | 0.00 | 0.00 | 0.00 | 52 | 1010.4 |
| 20260509044318 | 59 | 176 | 1.7 | 3.5 | 0.00 | 0.00 | 0.00 | 52 | 1010.4 |
| 20260509043830 | 59 | 175 | 1.7 | 4.3 | 0.00 | 0.00 | 0.00 | 52 | 1010.4 |
| 20260509043321 | 58 | 169 | 0.9 | 5.2 | 0.00 | 0.00 | 0.00 | 52 | 1010.4 |
| 20260509042853 | 58 | 178 | 2.6 | 5.2 | 0.00 | 0.00 | 0.00 | 53 | 1010.5 |
| 20260509042328 | 58 | 173 | 2.6 | 4.3 | 0.00 | 0.00 | 0.00 | 53 | 1010.5 |
| 20260509041840 | 58 | 165 | 1.7 | 3.5 | 0.00 | 0.00 | 0.00 | 53 | 1010.6 |
| 20260509041331 | 58 | 182 | 0.9 | 4.3 | 0.00 | 0.00 | 0.00 | 52 | 1010.6 |
| 20260509040822 | 59 | 167 | 1.7 | 3.5 | 0.00 | 0.00 | 0.00 | 51 | 1010.6 |
| 20260509040334 | 59 | 163 | 1.7 | 3.5 | 0.00 | 0.00 | 0.00 | 51 | 1010.5 |
| 20260509035823 | 59 | 173 | 1.7 | 4.3 | 0.00 | 0.00 | 0.00 | 51 | 1010.6 |
| 20260509035315 | 59 | 180 | 2.6 | 4.3 | 0.00 | 0.00 | 0.00 | 51 | 1010.5 |
| 20260509034826 | 59 | 169 | 3.5 | 5.2 | 0.00 | 0.00 | 0.00 | 50 | 1010.6 |
| 20260509034317 | 59 | 175 | 1.7 | 3.5 | 0.00 | 0.00 | 0.00 | 49 | 1010.6 |
| 20260509033829 | 59 | 173 | 2.6 | 4.3 | 0.00 | 0.00 | 0.00 | 49 | 1010.6 |
| 20260509033324 | 59 | 161 | 1.7 | 4.3 | 0.00 | 0.00 | 0.00 | 49 | 1010.6 |
| 20260509032816 | 60 | 171 | 0.9 | 3.5 | 0.00 | 0.00 | 0.00 | 49 | 1010.8 |
| 20260509032349 | 60 | 173 | 2.6 | 4.3 | 0.00 | 0.00 | 0.00 | 49 | 1010.9 |
| 20260509031818 | 60 | 165 | 3.5 | 4.3 | 0.00 | 0.00 | 0.00 | 49 | 1010.8 |
| 20260509031330 | 60 | 163 | 0.0 | 2.6 | 0.00 | 0.00 | 0.00 | 49 | 1010.7 |
| 20260509030842 | 59 | 163 | 0.9 | 2.6 | 0.00 | 0.00 | 0.00 | 49 | 1010.8 |
| 20260509030353 | 59 | 164 | 0.0 | 3.5 | 0.00 | 0.00 | 0.00 | 49 | 1010.8 |
| 20260509025822 | 60 | 161 | 0.0 | 1.7 | 0.00 | 0.00 | 0.00 | 51 | 1010.9 |
| 20260509025314 | 61 | 161 | 0.9 | 1.7 | 0.00 | 0.00 | 0.00 | 50 | 1011.1 |
| 20260509024826 | 61 | 161 | 0.0 | 1.7 | 0.00 | 0.00 | 0.00 | 46 | 1011.1 |
| 20260509024321 | 61 | 159 | 0.9 | 1.7 | 0.00 | 0.00 | 0.00 | 45 | 1011.0 |
| 20260509023813 | 61 | 159 | 0.0 | 0.9 | 0.00 | 0.00 | 0.00 | 48 | 1011.0 |
| 20260509023325 | 61 | 159 | 0.0 | 0.9 | 0.00 | 0.00 | 0.00 | 48 | 1011.1 |
| 20260509022817 | 61 | 159 | 0.0 | 0.9 | 0.00 | 0.00 | 0.00 | 46 | 1011.1 |
| 20260509022329 | 61 | 159 | 0.0 | 1.7 | 0.00 | 0.00 | 0.00 | 46 | 1011.1 |
| 20260509021821 | 61 | 159 | 0.0 | 1.7 | 0.00 | 0.00 | 0.00 | 45 | 1011.2 |
| 20260509021333 | 61 | 159 | 0.0 | 2.6 | 0.00 | 0.00 | 0.00 | 45 | 1011.1 |
| 20260509020824 | 61 | 162 | 0.9 | 4.3 | 0.00 | 0.00 | 0.00 | 45 | 1011.1 |
| 20260509020320 | 61 | 161 | 0.9 | 4.3 | 0.00 | 0.00 | 0.00 | 45 | 1011.1 |
| 20260509015850 | 61 | 157 | 0.9 | 1.7 | 0.00 | 0.00 | 0.00 | 46 | 1011.1 |
| 20260509015341 | 61 | 157 | 0.0 | 5.2 | 0.00 | 0.00 | 0.00 | 47 | 1011.0 |
| 20260509014832 | 61 | 157 | 1.7 | 5.2 | 0.00 | 0.00 | 0.00 | 47 | 1011.1 |
| 20260509014344 | 61 | 169 | 0.9 | 4.3 | 0.00 | 0.00 | 0.00 | 46 | 1011.1 |
| 20260509013815 | 60 | 164 | 1.7 | 4.3 | 0.00 | 0.00 | 0.00 | 46 | 1011.0 |
| 20260509013326 | 60 | 129 | 0.0 | 2.6 | 0.00 | 0.00 | 0.00 | 47 | 1011.0 |
| 20260509012818 | 60 | 69 | 0.0 | 2.6 | 0.00 | 0.00 | 0.00 | 47 | 1011.0 |
| 20260509012351 | 60 | 64 | 0.0 | 2.6 | 0.00 | 0.00 | 0.00 | 48 | 1011.0 |
| 20260509011822 | 60 | 75 | 0.0 | 1.7 | 0.00 | 0.00 | 0.00 | 48 | 1011.0 |
| 20260509011318 | 60 | 163 | 0.0 | 0.0 | 0.00 | 0.00 | 0.00 | 47 | 1010.9 |
| 20260509010830 | 61 | 163 | 0.0 | 2.6 | 0.00 | 0.00 | 0.00 | 47 | 1010.9 |
| 20260509010321 | 61 | 163 | 0.9 | 2.6 | 0.00 | 0.00 | 0.00 | 47 | 1010.9 |
| 20260509005851 | 61 | 141 | 0.0 | 1.7 | 0.00 | 0.00 | 0.00 | 46 | 1010.8 |
| 20260509005322 | 60 | 141 | 0.9 | 5.2 | 0.00 | 0.00 | 0.00 | 46 | 1010.9 |
| 20260509004814 | 60 | 142 | 0.0 | 0.0 | 0.00 | 0.00 | 0.00 | 45 | 1010.9 |
| 20260509004326 | 61 | 142 | 0.0 | 0.9 | 0.00 | 0.00 | 0.00 | 46 | 1010.9 |
| 20260509003818 | 61 | 142 | 0.0 | 0.9 | 0.00 | 0.00 | 0.00 | 46 | 1011.0 |
| 20260509003330 | 61 | 146 | 0.0 | 1.7 | 0.00 | 0.00 | 0.00 | 47 | 1011.0 |
| 20260509002825 | 61 | 145 | 0.0 | 6.1 | 0.00 | 0.00 | 0.00 | 47 | 1011.1 |
| 20260509002317 | 61 | 136 | 3.5 | 6.1 | 0.00 | 0.00 | 0.00 | 46 | 1010.9 |
| 20260509001829 | 62 | 20 | 0.0 | 0.0 | 0.00 | 0.00 | 0.00 | 44 | 1010.8 |
| 20260509001322 | 62 | 20 | 0.0 | 0.9 | 0.00 | 0.00 | 0.00 | 44 | 1010.7 |
| 20260509000814 | 62 | 20 | 0.0 | 0.9 | 0.00 | 0.00 | 0.00 | 43 | 1010.7 |
| 20260509000326 | 63 | 20 | 0.0 | 1.7 | 0.00 | 0.00 | 0.00 | 43 | 1010.7 |
| 20260508235815 | 63 | 20 | 0.0 | 0.9 | 0.00 | 0.00 | 0.00 | 43 | 1010.6 |
| 20260508235348 | 63 | 20 | 0.0 | 0.0 | 0.00 | 0.00 | 0.00 | 44 | 1010.6 |
| 20260508234818 | 63 | 20 | 0.0 | 0.0 | 0.00 | 0.00 | 0.00 | 43 | 1010.5 |
| 20260508234314 | 63 | 20 | 0.0 | 1.7 | 0.00 | 0.00 | 0.00 | 44 | 1010.5 |
| 20260508233826 | 63 | 20 | 0.0 | 1.7 | 0.00 | 0.00 | 0.00 | 44 | 1010.5 |
| 20260508233318 | 64 | 20 | 0.9 | 2.6 | 0.00 | 0.00 | 0.00 | 44 | 1010.5 |
| 20260508232830 | 64 | 16 | 0.9 | 4.3 | 0.00 | 0.00 | 0.00 | 43 | 1010.4 |
| 20260508232321 | 64 | 9 | 2.6 | 5.2 | 0.00 | 0.00 | 0.00 | 43 | 1010.3 |
| 20260508231813 | 65 | 9 | 1.7 | 4.3 | 0.00 | 0.00 | 0.00 | 45 | 1010.4 |
| 20260508231325 | 65 | 286 | 1.7 | 4.3 | 0.00 | 0.00 | 0.00 | 41 | 1010.4 |
| 20260508230816 | 65 | 291 | 0.9 | 3.5 | 0.00 | 0.00 | 0.00 | 39 | 1010.4 |
| 20260508230349 | 65 | 291 | 1.7 | 3.5 | 0.00 | 0.00 | 0.00 | 41 | 1010.3 |
| 20260508225822 | 65 | 313 | 0.0 | 6.1 | 0.00 | 0.00 | 0.00 | 39 | 1010.3 |
| 20260508225313 | 65 | 313 | 0.9 | 6.1 | 0.00 | 0.00 | 0.00 | 41 | 1010.3 |
| 20260508224825 | 65 | 304 | 1.7 | 6.1 | 0.00 | 0.00 | 0.00 | 42 | 1010.3 |
| 20260508224317 | 65 | 296 | 2.6 | 6.1 | 0.00 | 0.00 | 0.00 | 40 | 1010.3 |
| 20260508223829 | 66 | 272 | 0.9 | 7.0 | 0.00 | 0.00 | 0.00 | 40 | 1010.4 |
| 20260508223320 | 66 | 288 | 2.6 | 7.8 | 0.00 | 0.00 | 0.00 | 38 | 1010.4 |
| 20260508222852 | 66 | 288 | 5.2 | 7.8 | 0.00 | 0.00 | 0.00 | 39 | 1010.4 |
| 20260508222323 | 66 | 294 | 4.3 | 7.8 | 0.00 | 0.00 | 0.00 | 39 | 1010.4 |
| 20260508221818 | 66 | 270 | 4.3 | 7.8 | 0.00 | 0.00 | 0.00 | 38 | 1010.5 |
| 20260508221330 | 66 | 119 | 2.6 | 7.0 | 0.00 | 0.00 | 0.00 | 40 | 1010.5 |
| 20260508220843 | 66 | 152 | 1.7 | 7.0 | 0.00 | 0.00 | 0.00 | 43 | 1010.4 |
| 20260508220314 | 66 | 267 | 2.6 | 5.2 | 0.00 | 0.00 | 0.00 | 39 | 1010.4 |
| 20260508215824 | 66 | 313 | 1.7 | 6.1 | 0.00 | 0.00 | 0.00 | 40 | 1010.4 |
| 20260508215315 | 66 | 286 | 1.7 | 6.1 | 0.00 | 0.00 | 0.00 | 39 | 1010.4 |
| 20260508214827 | 65 | 48 | 0.9 | 6.1 | 0.00 | 0.00 | 0.00 | 41 | 1010.4 |
| 20260508214319 | 65 | 126 | 1.7 | 4.3 | 0.00 | 0.00 | 0.00 | 39 | 1010.5 |
| 20260508213831 | 66 | 146 | 2.6 | 7.8 | 0.00 | 0.00 | 0.00 | 38 | 1010.5 |
| 20260508213327 | 66 | 14 | 1.7 | 8.7 | 0.00 | 0.00 | 0.00 | 40 | 1010.5 |
| 20260508212819 | 66 | 313 | 4.3 | 9.6 | 0.00 | 0.00 | 0.00 | 40 | 1010.6 |
| 20260508212330 | 66 | 309 | 4.3 | 9.6 | 0.00 | 0.00 | 0.00 | 39 | 1010.6 |
| 20260508211822 | 66 | 22 | 1.7 | 4.3 | 0.00 | 0.00 | 0.00 | 39 | 1010.5 |
| 20260508211335 | 65 | 185 | 2.6 | 6.1 | 0.00 | 0.00 | 0.00 | 42 | 1010.6 |
| 20260508210826 | 65 | 109 | 0.9 | 7.0 | 0.00 | 0.00 | 0.00 | 41 | 1010.8 |
| 20260508210318 | 65 | 298 | 1.7 | 8.7 | 0.00 | 0.00 | 0.00 | 40 | 1010.8 |
| 20260508205848 | 65 | 298 | 3.5 | 8.7 | 0.00 | 0.00 | 0.00 | 38 | 1010.7 |
| 20260508205319 | 66 | 287 | 3.5 | 7.8 | 0.00 | 0.00 | 0.00 | 40 | 1010.7 |
| 20260508204814 | 66 | 293 | 3.5 | 7.8 | 0.00 | 0.00 | 0.00 | 39 | 1010.7 |
| 20260508204327 | 66 | 125 | 1.7 | 5.2 | 0.00 | 0.00 | 0.00 | 40 | 1010.8 |
| 20260508203839 | 66 | 284 | 2.6 | 7.0 | 0.00 | 0.00 | 0.00 | 41 | 1010.8 |
| 20260508203329 | 65 | 273 | 2.6 | 7.8 | 0.00 | 0.00 | 0.00 | 40 | 1010.9 |
| 20260508202821 | 65 | 313 | 2.6 | 10.4 | 0.00 | 0.00 | 0.00 | 37 | 1011.0 |
| 20260508202332 | 65 | 272 | 4.3 | 10.4 | 0.00 | 0.00 | 0.00 | 39 | 1011.0 |
| 20260508201825 | 66 | 260 | 4.3 | 9.6 | 0.00 | 0.00 | 0.00 | 35 | 1010.9 |
| 20260508201336 | 67 | 292 | 7.0 | 9.6 | 0.00 | 0.00 | 0.00 | 34 | 1011.0 |
| 20260508200828 | 67 | 227 | 4.3 | 9.6 | 0.00 | 0.00 | 0.00 | 36 | 1011.1 |
| 20260508200319 | 67 | 30 | 4.3 | 8.7 | 0.00 | 0.00 | 0.00 | 37 | 1011.0 |
| 20260508195835 | 66 | 84 | 2.6 | 12.2 | 0.00 | 0.00 | 0.00 | 37 | 1011.2 |
| 20260508195327 | 67 | 313 | 2.6 | 12.2 | 0.00 | 0.00 | 0.00 | 37 | 1011.3 |
| 20260508194819 | 66 | 309 | 4.3 | 9.6 | 0.00 | 0.00 | 0.00 | 38 | 1011.3 |
| 20260508194331 | 66 | 99 | 3.5 | 7.8 | 0.00 | 0.00 | 0.00 | 38 | 1011.3 |
| 20260508193822 | 66 | 153 | 3.5 | 7.8 | 0.00 | 0.00 | 0.00 | 38 | 1011.3 |
| 20260508193313 | 66 | 306 | 3.5 | 11.3 | 0.00 | 0.00 | 0.00 | 38 | 1011.3 |
| 20260508192827 | 66 | 305 | 3.5 | 13.0 | 0.00 | 0.00 | 0.00 | 36 | 1011.4 |
| 20260508192318 | 67 | 291 | 6.1 | 13.0 | 0.00 | 0.00 | 0.00 | 35 | 1011.4 |
| 20260508191813 | 67 | 271 | 2.6 | 10.4 | 0.00 | 0.00 | 0.00 | 35 | 1011.4 |
| 20260508191325 | 67 | 165 | 3.5 | 11.3 | 0.00 | 0.00 | 0.00 | 34 | 1011.6 |
| 20260508190816 | 69 | 309 | 5.2 | 11.3 | 0.00 | 0.00 | 0.00 | 33 | 1011.6 |
| 20260508190349 | 69 | 170 | 5.2 | 8.7 | 0.00 | 0.00 | 0.00 | 34 | 1011.8 |
| 20260508185839 | 69 | 168 | 4.3 | 13.0 | 0.00 | 0.00 | 0.00 | 34 | 1011.6 |
| 20260508185350 | 69 | 163 | 6.1 | 10.4 | 0.00 | 0.00 | 0.00 | 36 | 1011.7 |
| 20260508184821 | 68 | 146 | 5.2 | 9.6 | 0.00 | 0.00 | 0.00 | 35 | 1012.0 |
| 20260508184313 | 67 | 66 | 3.5 | 11.3 | 0.00 | 0.00 | 0.00 | 34 | 1012.0 |
| 20260508183824 | 67 | 294 | 4.3 | 11.3 | 0.00 | 0.00 | 0.00 | 37 | 1012.0 |
| 20260508183337 | 67 | 9 | 5.2 | 12.2 | 0.00 | 0.00 | 0.00 | 36 | 1012.0 |
| 20260508182828 | 67 | 281 | 4.3 | 12.2 | 0.00 | 0.00 | 0.00 | 40 | 1012.1 |
| 20260508182324 | 66 | 107 | 3.5 | 8.7 | 0.00 | 0.00 | 0.00 | 36 | 1012.1 |
| 20260508181816 | 65 | 140 | 4.3 | 9.6 | 0.00 | 0.00 | 0.00 | 38 | 1012.1 |
| 20260508181348 | 65 | 182 | 5.2 | 9.6 | 0.00 | 0.00 | 0.00 | 38 | 1012.2 |
| 20260508180818 | 66 | 184 | 4.3 | 9.6 | 0.00 | 0.00 | 0.00 | 37 | 1012.3 |
| 20260508180330 | 65 | 123 | 4.3 | 7.8 | 0.00 | 0.00 | 0.00 | 40 | 1012.4 |
| 20260508175822 | 64 | 144 | 3.5 | 7.8 | 0.00 | 0.00 | 0.00 | 40 | 1012.3 |
| 20260508175314 | 64 | 119 | 3.5 | 10.4 | 0.00 | 0.00 | 0.00 | 41 | 1012.3 |
| 20260508174826 | 64 | 146 | 3.5 | 10.4 | 0.00 | 0.00 | 0.00 | 36 | 1012.5 |
| 20260508174318 | 65 | 286 | 4.3 | 7.8 | 0.00 | 0.00 | 0.00 | 35 | 1012.7 |